STARLINK-35645, 66124

Orbit data source: Space-Track

STARLINK-35645, 66124 is a payload satellite owned by SpaceX/Seattle (US) in LEO that was launched on Wed, 22 Oct 2025 UTC via an FALCON 9 launch vehicle from the Air Force Western Test Range (AFWTR). Payload-class satellites include a variety of spacecraft equipped with specific instruments for various scientific and technological missions. These include communications satellites like Starlink; space stations such as the ISS; scientific satellites like the Hubble; Earth observation satellites from companies like Planet Labs, Umbra, and HawkEye 360; GPS; miniature CubeSats for education and research; and military/defense satellites.

Loading next visibility...
Identifier
66124, 2025-237L
Orbit
LEO
Country
Flag of USUS
Related business
Manufacturer
SpaceX/Seattle
Mission
Operational Commercial Communications
Bus & Motor
STARLINK V2MO, Unknown motor
Mass
575 kg wet, ~530 kg dry
Launch date (UTC)
2025-10-22 (4 months ago)
Launch vehicle
FALCON 9
Launch site
Air Force Western Test Range (AFWTR)
Object type
Payload
Rocket body
Debris
Shape & HBR
Box + 2 Pan, 17.7 m
Radar Cross Section
36.964 m²

Expand to show TLE details & history
Last TLE update: 18 hours ago

TLE from 18 hours ago
0 STARLINK-35645
1 66124U 25237L   26061.32484072  .00012760  00000-0  44227-3 0  9991
2 66124  53.1587  73.7881 0001446  99.0297 261.0868 15.30195742 21488
Epoch: 2026-03-02T07:47Z
TLE epoch observation values (Epoch: 2026-03-02T07:47:46.238Z)
Latitude
0.00004°
Longitude
156.72559°
Altitude
476.281 km
Speed
7.629 km/s
True Right ascension
04h 55m 09s
True Declination
0° 00' 00"
Sunlit
Object was in daylight at epoch
Visualization orbit readout
Latitude
Unknown
Longitude
Unknown
Altitude
Unknown
Speed
Unknown
Apparent Right ascension
Unknown
Apparent Declination
Unknown
Sunlit
N/A
Visualization observer readout
Local Sidereal Time
05:23:08
Azimuth
Unknown
Elevation
Unknown
Doppler factor
Unknown
Orbital elements
Apogee altitude
476.475 km
Perigee altitude
474.493 km
Semi-major axis
6,853.621 km
Eccentricity
0.00014
Inclination
53.1587°
RAAN
73.7881°
Arg. of periapsis
99.0297°
True anomaly
261.07043°
Mean anomaly
261.0868°
Eccentric anomaly
261.07862°
Mean motion
3.82528 °/min
Orbital period
94.11 mins
BSTAR
0.00044227
Loading maneuver chart data...
Computing Atmospheric mass density...
Loading historical data...
Loading historical data...
Loading historical data...
Loading historical data...
Loading historical data...
Loading historical data...
Loading historical data...

Documentation

Showing up to 5 results
|